• In Portugal
  • List of Countries
  • For 7 days
  • Water Temperature
  • Satellite Maps
  • Weather Map
  • Weather Widgets
  • user-avatar
    Login

    Hourly Weather Struga

    Today, 19 July, Thursday

    Time Temperature Precipitation Wind Pressure Humidity
    00:00 +16°C° 0 mm 2 mps 725 mmHg 92%
    01:00 +16°C° 0 mm 2 mps 725 mmHg 93%
    02:00 +16°C° 0 mm 3 mps 725 mmHg 94%
    03:00 +16°C° 0 mm 3 mps 725 mmHg 95%
    04:00 +14°C° 0 mm 3 mps 725 mmHg 95%
    05:00 +15°C° 0 mm 4 mps 725 mmHg 92%
    06:00 +17°C° 0 mm 4 mps 726 mmHg 89%
    07:00 +17°C° 0 mm 5 mps 726 mmHg 86%
    08:00 +19°C° 0.1 mm 5 mps 726 mmHg 83%
    09:00 +19°C° 0.1 mm 5 mps 726 mmHg 80%
    10:00 +20°C° 0.1 mm 6 mps 726 mmHg 76%
    11:00 +20°C° 0.3 mm 6 mps 726 mmHg 79%
    12:00 +20°C° 0.3 mm 6 mps 726 mmHg 81%
    13:00 +19°C° 0.3 mm 6 mps 726 mmHg 83%
    14:00 +19°C° 0.2 mm 5 mps 726 mmHg 85%
    15:00 +19°C° 0.2 mm 5 mps 726 mmHg 87%
    16:00 +17°C° 0.2 mm 5 mps 726 mmHg 89%
    17:00 +18°C° 0.1 mm 4 mps 726 mmHg 89%
    18:00 +18°C° 0.1 mm 4 mps 726 mmHg 89%
    19:00 +18°C° 0.1 mm 3 mps 726 mmHg 89%
    20:00 +17°C° 0 mm 3 mps 726 mmHg 90%
    21:00 +17°C° 0 mm 3 mps 726 mmHg 92%
    22:00 +16°C° 0 mm 3 mps 726 mmHg 94%
    23:00 +16°C° 0 mm 2 mps 726 mmHg 94%

    Tomorrow, 20 July, Friday

    Time Temperature Precipitation Wind Pressure Humidity
    00:00 +15°C° 0 mm 2 mps 726 mmHg 95%
    01:00 +15°C° 0 mm 2 mps 726 mmHg 95%
    02:00 +15°C° 0 mm 2 mps 726 mmHg 95%
    03:00 +14°C° 0 mm 2 mps 726 mmHg 95%
    04:00 +14°C° 0 mm 2 mps 726 mmHg 94%
    05:00 +15°C° 0 mm 2 mps 726 mmHg 89%
    06:00 +16°C° 0 mm 2 mps 727 mmHg 83%
    07:00 +17°C° 0 mm 2 mps 727 mmHg 78%
    08:00 +19°C° 0 mm 3 mps 727 mmHg 69%
    09:00 +20°C° 0 mm 3 mps 727 mmHg 61%
    10:00 +22°C° 0 mm 3 mps 727 mmHg 52%
    11:00 +24°C° 0 mm 3 mps 727 mmHg 49%
    12:00 +25°C° 0 mm 3 mps 727 mmHg 46%
    13:00 +25°C° 0 mm 3 mps 727 mmHg 43%
    14:00 +25°C° 0 mm 3 mps 726 mmHg 43%
    15:00 +25°C° 0 mm 3 mps 726 mmHg 43%
    16:00 +25°C° 0 mm 3 mps 726 mmHg 43%
    17:00 +24°C° 0 mm 2 mps 726 mmHg 49%
    18:00 +23°C° 0 mm 2 mps 725 mmHg 55%
    19:00 +22°C° 0 mm 1 mps 725 mmHg 62%
    20:00 +20°C° 0 mm 1 mps 725 mmHg 64%
    21:00 +19°C° 0 mm 1 mps 725 mmHg 66%
    22:00 +16°C° 0 mm 1 mps 725 mmHg 69%
    23:00 +16°C° 0 mm 1 mps 725 mmHg 70%

    Day after tomorrow, 21 July, Saturday

    Time Temperature Precipitation Wind Pressure Humidity
    00:00 +15°C° 0 mm 1 mps 725 mmHg 70%
    01:00 +15°C° 0 mm 1 mps 725 mmHg 71%
    02:00 +15°C° 0 mm 1 mps 725 mmHg 72%
    03:00 +14°C° 0 mm 1 mps 725 mmHg 73%
    04:00 +14°C° 0 mm 1 mps 724 mmHg 74%
    05:00 +16°C° 0 mm 1 mps 725 mmHg 70%
    06:00 +19°C° 0 mm 1 mps 725 mmHg 66%
    07:00 +20°C° 0 mm 1 mps 725 mmHg 63%
    08:00 +22°C° 0 mm 1 mps 725 mmHg 58%
    09:00 +24°C° 0 mm 1 mps 725 mmHg 53%
    10:00 +25°C° 0 mm 1 mps 725 mmHg 48%
    11:00 +26°C° 0 mm 1 mps 725 mmHg 47%
    12:00 +26°C° 0 mm 1 mps 725 mmHg 45%
    13:00 +26°C° 0 mm 1 mps 724 mmHg 43%
    14:00 +27°C° 0 mm 1 mps 724 mmHg 43%
    15:00 +27°C° 0 mm 1 mps 724 mmHg 44%
    16:00 +27°C° 0 mm 1 mps 724 mmHg 44%
    17:00 +25°C° 0 mm 1 mps 724 mmHg 49%
    18:00 +24°C° 0 mm 1 mps 723 mmHg 55%
    19:00 +23°C° 0 mm 1 mps 723 mmHg 61%
    20:00 +21°C° 0 mm 1 mps 723 mmHg 64%
    21:00 +20°C° 0 mm 1 mps 723 mmHg 66%
    22:00 +19°C° 0 mm 1 mps 723 mmHg 69%
    23:00 +19°C° 0 mm 1 mps 723 mmHg 71%

    22 July, Sunday

    Time Temperature Precipitation Wind Pressure Humidity
    00:00 +18°C° 0 mm 1 mps 723 mmHg 73%
    01:00 +18°C° 0 mm 1 mps 723 mmHg 75%
    02:00 +16°C° 0 mm 1 mps 723 mmHg 76%
    03:00 +16°C° 0 mm 1 mps 723 mmHg 77%
    04:00 +16°C° 0 mm 1 mps 723 mmHg 78%
    05:00 +18°C° 0 mm 1 mps 723 mmHg 75%
    06:00 +17°C° 0 mm 0 mps 723 mmHg 72%
    07:00 +19°C° 0 mm 0 mps 723 mmHg 69%
    08:00 +22°C° 0.2 mm 1 mps 723 mmHg 66%
    09:00 +23°C° 0.2 mm 1 mps 723 mmHg 64%
    10:00 +24°C° 0.2 mm 2 mps 723 mmHg 61%
    11:00 +25°C° 0.5 mm 2 mps 723 mmHg 59%
    12:00 +25°C° 0.5 mm 2 mps 723 mmHg 57%
    13:00 +26°C° 0.5 mm 2 mps 723 mmHg 55%
    14:00 +25°C° 0.4 mm 2 mps 723 mmHg 56%
    15:00 +25°C° 0.4 mm 2 mps 723 mmHg 58%
    16:00 +25°C° 0.4 mm 3 mps 723 mmHg 59%
    17:00 +24°C° 0.2 mm 2 mps 723 mmHg 64%
    18:00 +21°C° 0.2 mm 2 mps 723 mmHg 68%
    19:00 +20°C° 0.2 mm 2 mps 723 mmHg 73%
    20:00 +19°C° 0 mm 2 mps 723 mmHg 74%
    21:00 +18°C° 0 mm 2 mps 724 mmHg 76%
    22:00 +18°C° 0 mm 2 mps 724 mmHg 78%
    23:00 +17°C° 0 mm 2 mps 724 mmHg 79%

    23 July, Monday

    Time Temperature Precipitation Wind Pressure Humidity
    00:00 +17°C° 0 mm 2 mps 724 mmHg 81%
    01:00 +17°C° 0 mm 2 mps 724 mmHg 82%
    02:00 +16°C° 0 mm 2 mps 724 mmHg 83%
    03:00 +16°C° 0 mm 2 mps 725 mmHg 84%
    04:00 +16°C° 0 mm 2 mps 725 mmHg 85%
    05:00 +17°C° 0.1 mm 2 mps 725 mmHg 83%
    06:00 +18°C° 0.1 mm 2 mps 725 mmHg 82%
    07:00 +18°C° 0.1 mm 3 mps 726 mmHg 80%
    08:00 +20°C° 0.6 mm 3 mps 726 mmHg 76%
    09:00 +21°C° 0.6 mm 3 mps 726 mmHg 72%
    10:00 +22°C° 0.6 mm 4 mps 726 mmHg 68%
    11:00 +22°C° 0.7 mm 4 mps 726 mmHg 66%
    12:00 +23°C° 0.7 mm 4 mps 726 mmHg 65%
    13:00 +23°C° 0.7 mm 4 mps 726 mmHg 63%
    14:00 +23°C° 0.3 mm 4 mps 726 mmHg 62%
    15:00 +25°C° 0.3 mm 4 mps 726 mmHg 60%
    16:00 +25°C° 0.3 mm 4 mps 726 mmHg 59%
    17:00 +24°C° 0.1 mm 3 mps 726 mmHg 63%
    18:00 +23°C° 0.1 mm 2 mps 726 mmHg 67%
    19:00 +21°C° 0.1 mm 2 mps 726 mmHg 71%
    20:00 +20°C° 0 mm 1 mps 726 mmHg 74%
    21:00 +19°C° 0 mm 1 mps 726 mmHg 77%
    22:00 +18°C° 0 mm 1 mps 727 mmHg 80%
    23:00 +16°C° 0 mm 1 mps 727 mmHg 81%

    24 July, Tuesday

    Time Temperature Precipitation Wind Pressure Humidity
    00:00 +16°C° 0 mm 1 mps 727 mmHg 83%
    01:00 +15°C° 0 mm 1 mps 727 mmHg 84%
    02:00 +15°C° 0 mm 1 mps 727 mmHg 86%
    03:00 +14°C° 0 mm 1 mps 727 mmHg 87%
    04:00 +14°C° 0 mm 1 mps 727 mmHg 88%
    05:00 +16°C° 0 mm 1 mps 727 mmHg 83%
    06:00 +19°C° 0 mm 1 mps 727 mmHg 77%
    07:00 +18°C° 0 mm 0 mps 728 mmHg 72%
    08:00 +22°C° 0 mm 1 mps 728 mmHg 67%
    09:00 +23°C° 0 mm 1 mps 728 mmHg 62%
    10:00 +24°C° 0 mm 2 mps 728 mmHg 57%
    11:00 +25°C° 0 mm 2 mps 728 mmHg 56%
    12:00 +25°C° 0 mm 2 mps 727 mmHg 54%
    13:00 +26°C° 0 mm 2 mps 727 mmHg 53%
    14:00 +26°C° 0 mm 2 mps 727 mmHg 53%
    15:00 +26°C° 0 mm 2 mps 727 mmHg 53%
    16:00 +26°C° 0 mm 2 mps 727 mmHg 54%
    17:00 +25°C° 0 mm 2 mps 727 mmHg 59%
    18:00 +24°C° 0 mm 2 mps 727 mmHg 65%
    19:00 +23°C° 0 mm 1 mps 727 mmHg 71%
    20:00 +22°C° 0 mm 1 mps 727 mmHg 74%
    21:00 +20°C° 0 mm 1 mps 727 mmHg 78%
    22:00 +19°C° 0 mm 1 mps 727 mmHg 82%
    23:00 +19°C° 0 mm 1 mps 727 mmHg 83%
    Show more